• Join FlightAware (Why Join?)
  • Login
  • US Flag GB Flag 
23:23 EST


 

Airport Tracker/Info


-or-


 

Live Flight TrackerFlight Track Log ✈ DAL268 ✈ 20-Jul-2013 ✈ KJFK - LLBG / TLV

Flight Track Log - Related Links

Times and Time Zones

All times are in EDT time to prevent confusion due to time zone crossing. See the DAL268 flight status page for this flight to view local times or setup timezone preferences in your user account.

Time Position Orientation Groundspeed Altitude Reporting Facility
EDT Latitude Longitude Course Direction KTS MPH feet Rate Location/Type
00:28 40.6370 -73.7800 North  Level FlightAware
00:32 40.6370 -73.7790 90° East 2 2  Level FlightAware
00:32 40.6380 -73.7790 360° North 2 2  Level FlightAware
00:35 40.5894 -73.4075 108° East  Level FlightAware Approximate
00:35 40.6370 -73.7790 108° East 2 2  Level FlightAware
00:36 40.6360 -73.7790 180° South 9 10  Level FlightAware
00:39 40.5834 -73.3836 108° East  Level FlightAware Approximate
00:40 40.5639 -73.2023 97° East  Level FlightAware Approximate
00:41 40.5500 -73.0154 90° East  Level FlightAware Approximate
00:42 40.5872 -72.8384 66° East  Level FlightAware Approximate
00:43 40.6333 -72.6630 90° East  Level FlightAware Approximate
00:44 40.6802 -72.4860 69° East  Level FlightAware Approximate
00:44 40.6360 -73.7760 37° Northeast 32 37  Level FlightAware
00:45 40.6380 -73.7750 21° North 16 18 60 Level FlightAware
00:45 40.6390 -73.7740 37° Northeast 16 18 60 Level FlightAware
00:46 40.6410 -73.7730 21° North 16 18 60 Level FlightAware
00:46 40.6420 -73.7710 57° Northeast 30 35 60 Level FlightAware
00:46 40.6430 -73.7710 360° North 32 37 60 Level FlightAware
00:47 40.6450 -73.7700 21° North 31 36 60 Level FlightAware
00:47 40.6460 -73.7700 360° North 31 36 60 Level FlightAware
00:48 40.6470 -73.7700 360° North 28 32 60 Level FlightAware
00:48 40.6490 -73.7700 360° North 22 25 120 Level FlightAware
00:49 40.6490 -73.7690 90° East 25 29 120 Level FlightAware
00:49 40.6500 -73.7670 57° Northeast 13 15 120 Level FlightAware
00:50 40.6500 -73.7660 90° East 12 14 180 Level FlightAware
00:50 40.6490 -73.7650 143° Southeast 31 36 240 Level FlightAware
00:51 40.6380 -73.7730 209° Southwest 130 150 420 Level FlightAware
00:52 40.6190 -73.7890 213° Southwest 177 204 500 1,320 Climbing FlightAware
00:52 40.5980 -73.8050 210° Southwest 185 213 1,300 1,620 Climbing FlightAware
00:52 40.5890 -73.8120 211° Southwest 191 220 1,600 1,020 Climbing FlightAware
00:53 40.5650 -73.8310 211° Southwest 227 261 2,000 900 Climbing FlightAware
00:53 40.5440 -73.8460 208° Southwest 240 276 2,400 1,020 Climbing FlightAware
00:54 40.5090 -73.8570 193° South 272 313 2,900 1,080 Climbing FlightAware
00:54 40.4767 -73.8488 169° South 296 341 3,400 1,200 Climbing FlightAware ADS-B
00:54 40.4704 -73.8436 148° Southeast 299 344 3,500 1,500 Climbing FlightAware ADS-B
00:54 40.4669 -73.8404 145° Southeast 302 348 3,600 2,220 Climbing FlightAware ADS-B
00:54 40.4616 -73.8342 138° Southeast 303 349 3,800 1,980 Climbing FlightAware ADS-B
00:54 40.4585 -73.8301 135° Southeast 304 350 3,900 1,680 Climbing FlightAware ADS-B
00:54 40.4557 -73.8257 130° Southeast 306 352 4,000 1,980 Climbing FlightAware ADS-B
00:54 40.4534 -73.8194 116° Southeast 307 353 4,100 2,220 Climbing FlightAware ADS-B
00:55 40.4504 -73.8110 115° Southeast 307 353 4,300 1,800 Climbing FlightAware ADS-B
00:55 40.4484 -73.8038 110° East 309 356 4,400 1,500 Climbing FlightAware ADS-B
00:55 40.4476 -73.7964 98° East 309 356 4,500 1,980 Climbing FlightAware ADS-B
00:55 40.4472 -73.7908 95° East 310 357 4,600 2,220 Climbing FlightAware ADS-B
00:55 40.4474 -73.7814 88° East 310 357 4,800 1,800 Climbing FlightAware ADS-B
00:55 40.4483 -73.7739 81° East 311 358 4,900 2,280 Climbing FlightAware ADS-B
00:55 40.4537 -73.7426 77° East 310 357 5,600 2,400 Climbing FlightAware ADS-B
00:55 40.4578 -73.7130 80° East 312 359 6,200 2,040 Climbing FlightAware ADS-B
00:56 40.4611 -73.6826 82° East 318 366 6,700 1,740 Climbing FlightAware ADS-B
00:56 40.4643 -73.6537 82° East 322 371 7,100 1,740 Climbing FlightAware ADS-B
00:56 40.4686 -73.6246 79° East 327 376 7,600 1,740 Climbing FlightAware ADS-B
00:56 40.4735 -73.5933 78° East 331 381 8,000 1,920 Climbing FlightAware ADS-B
00:57 40.4787 -73.5636 77° East 334 384 8,600 2,100 Climbing FlightAware ADS-B
00:57 40.4829 -73.5337 80° East 336 387 9,100 1,980 Climbing FlightAware ADS-B
00:57 40.4869 -73.5013 81° East 341 392 9,600 1,740 Climbing FlightAware ADS-B
00:58 40.4966 -73.4373 79° East 350 403 10,500 1,200 Climbing FlightAware ADS-B
00:58 40.5067 -73.3725 78° East 375 432 10,900 900 Climbing FlightAware ADS-B
00:59 40.5174 -73.3005 79° East 402 463 11,400 960 Climbing FlightAware ADS-B
00:59 40.5283 -73.2262 79° East 424 488 11,900 1,200 Climbing FlightAware ADS-B
01:00 40.5402 -73.1434 79° East 441 507 12,700 1,680 Climbing FlightAware ADS-B
01:00 40.5498 -73.0604 81° East 449 517 13,700 1,800 Climbing FlightAware ADS-B
01:01 40.5593 -72.9783 81° East 459 528 14,600 1,740 Climbing FlightAware ADS-B
01:01 40.5692 -72.8948 81° East 466 536 15,500 1,980 Climbing FlightAware ADS-B
01:02 40.5795 -72.8076 81° East 471 542 16,600 2,100 Climbing FlightAware ADS-B
01:02 40.5897 -72.7223 81° East 476 548 17,600 1,920 Climbing FlightAware ADS-B
01:03 40.6002 -72.6331 81° East 479 551 18,600 1,800 Climbing FlightAware ADS-B
01:03 40.6105 -72.5463 81° East 486 559 19,500 1,620 Climbing FlightAware ADS-B
01:04 40.6209 -72.4554 81° East 490 564 20,300 1,560 Climbing FlightAware ADS-B
01:04 40.6313 -72.3663 81° East 496 571 21,100 1,500 Climbing FlightAware ADS-B
01:05 40.6419 -72.2733 81° East 501 577 21,900 1,320 Climbing FlightAware ADS-B
01:05 40.6542 -72.1640 82° East 509 586 22,600 1,140 Climbing FlightAware ADS-B
01:06 40.6648 -72.0712 81° East 511 588 23,200 1,260 Climbing FlightAware ADS-B
01:07 40.6765 -71.9644 82° East 522 601 24,000 1,320 Climbing FlightAware ADS-B
01:07 40.6884 -71.8571 82° East 526 605 24,700 1,260 Climbing FlightAware ADS-B
01:08 40.7000 -71.7490 82° East 529 609 25,500 780 Climbing FlightAware
01:09 40.7180 -71.5950 81° East 532 612 25,900 240 Climbing FlightAware
01:09 40.7330 -71.4640 81° East 532 612 25,900  Level FlightAware
01:10 40.7450 -71.3660 81° East 532 612 25,900 2,040 Level FlightAware
01:10 40.7517 -71.2319 81° East 533 613 28,200 2,040 Climbing Boston Center
01:12 40.7853 -70.9361 81° East 563 648 30,200 1,080 Climbing New York Center
01:13 40.8061 -70.7114 83° East 548 631 31,000 360 Climbing New York Center
01:14 40.8269 -70.5194 82° East 543 625 31,000  Level New York Center
01:15 40.8453 -70.3303 83° East 532 612 31,000  Level New York Center
01:16 40.8631 -70.1328 83° East 532 612 31,000  Level New York Center
01:17 40.8808 -69.9406 83° East 532 612 31,000  Level New York Center
01:18 40.8981 -69.7453 83° East 540 621 31,000  Level New York Center
01:19 40.9172 -69.5475 83° East 540 621 31,000  Level New York Center
01:20 40.9339 -69.3522 83° East 540 621 31,000  Level New York Center
01:21 40.9522 -69.1569 83° East 540 621 31,000  Level New York Center
01:22 40.9661 -68.9614 85° East 540 621 31,000  Level New York Center
01:23 40.9839 -68.7631 83° East 540 621 31,000  Level New York Center
01:24 41.0014 -68.5647 83° East 540 621 31,000  Level New York Center
01:25 41.0144 -68.3692 85° East 540 621 31,000  Level New York Center
01:26 41.0333 -68.1733 83° East 540 621 31,000  Level New York Center
01:27 41.0456 -67.9803 85° East 535 616 31,000  Level New York Center
01:28 41.0597 -67.7844 84° East 535 616 31,000  Level New York Center
01:29 41.0736 -67.5911 84° East 540 621 31,000  Level New York Center
01:30 41.0872 -67.3978 85° East 540 621 31,000  Level New York Center
01:30 41.0833 -67.3833 83° East 534 615 31,000  Level New York Oceanic (ODAPS)
01:31 41.1022 -67.1989 83° East 540 621 31,000  Level New York Center
01:32 41.1167 -67.0000 78° East 542 624 31,000  Level New York Oceanic (ODAPS)
01:37 41.2520 -66.1280 83° East 537 618 31,000  Level FlightAware
01:37 41.2690 -66.0140 78° East 537 618 31,000  Level FlightAware
01:38 41.2900 -65.8720 79° East 537 618 31,000  Level FlightAware
01:39 41.3100 -65.7370 79° East 536 617 31,000  Level FlightAware
01:39 41.3290 -65.6040 79° East 537 618 31,000  Level FlightAware
01:40 41.3470 -65.4810 79° East 537 618 31,000  Level FlightAware
01:41 41.3680 -65.3320 79° East 537 618 31,000  Level FlightAware
01:41 41.3870 -65.2010 79° East 537 618 31,000  Level FlightAware
01:42 41.4040 -65.0790 79° East 538 619 31,000  Level FlightAware
01:43 41.4260 -64.9270 79° East 537 618 31,000  Level FlightAware
01:44 41.4580 -64.6950 79° East 538 619 31,000  Level FlightAware
01:45 41.4870 -64.4800 80° East 539 620 31,000  Level FlightAware
01:46 41.5040 -64.3560 80° East 540 621 31,000  Level FlightAware
01:47 41.5320 -64.1410 80° East 543 625 31,000  Level FlightAware
01:47 41.5460 -64.0390 80° East 543 625 31,000  Level FlightAware
01:50 41.5984 -63.6327 80° East  Level FlightAware Approximate
01:50 41.6333 -63.4167 81° East 544 626 31,000  Level New York Oceanic (ODAPS)
01:50 41.6230 -63.4300 80° East 546 628 31,000  Level FlightAware
01:51 41.6225 -63.4420 80° East  Level FlightAware Approximate
01:51 41.6420 -63.2790 80° East 545 627 31,000  Level FlightAware
01:52 41.6620 -63.1230 80° East 546 628 31,000  Level FlightAware
01:53 41.6880 -62.9060 81° East 546 628 31,000  Level FlightAware
01:54 41.7090 -62.7360 81° East 545 627 31,000  Level FlightAware
01:55 41.7290 -62.5630 81° East 545 627 31,000  Level FlightAware
01:55 41.7410 -62.4610 81° East 545 627 31,000  Level FlightAware
01:56 41.7530 -62.3590 81° East 545 627 31,000  Level FlightAware
01:57 41.7860 -62.0760 81° East 544 626 31,000  Level FlightAware
01:58 41.7980 -61.9730 81° East 544 626 31,000  Level FlightAware
01:59 41.8130 -61.8400 81° East 544 626 31,000  Level FlightAware
01:59 41.8250 -61.7380 81° East 544 626 31,000  Level FlightAware
02:00 41.8410 -61.6020 81° East 544 626 31,000  Level FlightAware
02:01 41.8530 -61.5000 81° East 544 626 31,000  Level FlightAware
02:01 41.8690 -61.3640 81° East 544 626 31,000  Level FlightAware
02:02 41.8810 -61.2620 81° East 544 626 31,000  Level FlightAware
02:03 41.8970 -61.1250 81° East 544 626 31,000  Level FlightAware
02:03 41.9100 -61.0230 80° East 544 626 31,000  Level FlightAware
02:04 41.9260 -60.8870 81° East 544 626 31,000  Level FlightAware
02:05 41.9380 -60.7820 81° East 544 626 31,000  Level FlightAware
02:05 41.9500 -60.6770 81° East 544 626 31,000  Level FlightAware
02:06 41.9660 -60.5460 81° East 544 626 31,000  Level FlightAware
02:08 42.0000 -60.0000 71° East 548 631 31,000  Level New York Oceanic (ODAPS)
02:09 42.1278 -60.1326 62° Northeast  Level Estimated
02:10 42.1949 -59.9598 62° Northeast  Level Estimated
02:11 42.2616 -59.7866 62° Northeast  Level Estimated
02:11 42.1500 -59.3667 72° East 543 625 31,000  Level New York Oceanic (ODAPS)
02:12 42.3281 -59.6130 63° Northeast  Level Estimated
02:13 42.3943 -59.4390 63° Northeast  Level Estimated
02:14 42.2852 -58.8357 72° East 548 631 31,000  Level FlightAware Transoceanic
02:15 42.3316 -58.6406 72° East 548 631 31,000  Level FlightAware Transoceanic
02:16 42.3777 -58.4453 72° East 548 631 31,000  Level FlightAware Transoceanic
02:17 42.4281 -58.2035 72° East 543 625 31,000  Level FlightAware Transoceanic
02:18 42.4733 -58.0087 73° East 543 625 31,000  Level FlightAware Transoceanic
02:19 42.5181 -57.8136 73° East 543 625 31,000  Level FlightAware Transoceanic
02:20 42.5627 -57.6182 73° East 543 625 31,000  Level FlightAware Transoceanic
02:21 42.6069 -57.4225 73° East 543 625 31,000  Level FlightAware Transoceanic
02:22 42.6507 -57.2265 73° East 543 625 31,000  Level FlightAware Transoceanic
02:23 42.6943 -57.0303 73° East 543 625 31,000  Level FlightAware Transoceanic
02:24 42.7375 -56.8338 73° East 543 625 31,000  Level FlightAware Transoceanic
02:25 42.7803 -56.6370 74° East 543 625 31,000  Level FlightAware Transoceanic
02:26 42.8229 -56.4399 74° East 543 625 31,000  Level FlightAware Transoceanic
02:27 42.8651 -56.2426 74° East 543 625 31,000  Level FlightAware Transoceanic
02:28 42.9069 -56.0450 74° East 543 625 31,000  Level FlightAware Transoceanic
02:29 42.9484 -55.8471 74° East 543 625 31,000  Level FlightAware Transoceanic
02:30 42.9896 -55.6490 74° East 543 625 31,000  Level FlightAware Transoceanic
02:31 43.0304 -55.4506 74° East 543 625 31,000  Level FlightAware Transoceanic
02:31 43.0667 -55.3333 75° East 551 634 31,000  Level New York Oceanic (ODAPS)
02:32 43.0709 -55.2520 74° East 543 625 31,000  Level FlightAware Transoceanic
02:33 43.1110 -55.0531 75° East 543 625 31,000  Level FlightAware Transoceanic
02:34 43.1508 -54.8539 75° East 543 625 31,000  Level FlightAware Transoceanic
02:35 43.1903 -54.6544 75° East 543 625 31,000  Level FlightAware Transoceanic
02:36 43.2294 -54.4548 75° East 543 625 31,000  Level FlightAware Transoceanic
02:37 43.3039 -54.1175 75° East 551 634 31,000  Level FlightAware Transoceanic
02:38 43.3422 -53.9139 76° East 551 634 31,000  Level FlightAware Transoceanic
02:39 43.3801 -53.7101 76° East 551 634 31,000  Level FlightAware Transoceanic
02:40 43.4177 -53.5061 76° East 551 634 31,000  Level FlightAware Transoceanic
02:41 43.4549 -53.3018 76° East 551 634 31,000  Level FlightAware Transoceanic
02:42 43.4917 -53.0972 76° East 551 634 31,000  Level FlightAware Transoceanic
02:43 43.5282 -52.8924 76° East 551 634 31,000  Level FlightAware Transoceanic
02:44 43.5643 -52.6873 76° East 551 634 31,000  Level FlightAware Transoceanic
02:45 43.6001 -52.4820 77° East 551 634 31,000  Level FlightAware Transoceanic
02:46 43.6354 -52.2765 77° East 551 634 31,000  Level FlightAware Transoceanic
02:47 43.6704 -52.0707 77° East 551 634 31,000  Level FlightAware Transoceanic
02:48 43.7051 -51.8647 77° East 551 634 31,000  Level FlightAware Transoceanic
02:49 43.7393 -51.6584 77° East 551 634 31,000  Level FlightAware Transoceanic
02:50 43.7732 -51.4519 77° East 551 634 31,000  Level FlightAware Transoceanic
02:51 43.8068 -51.2452 77° East 551 634 31,000  Level FlightAware Transoceanic
02:51 43.8167 -51.1333 77° East 554 638 31,000  Level New York Oceanic (ODAPS)
02:52 43.8399 -51.0382 78° East 551 634 31,000  Level FlightAware Transoceanic
02:53 43.8727 -50.8310 78° East 551 634 31,000  Level FlightAware Transoceanic
02:54 43.9051 -50.6236 78° East 551 634 31,000  Level FlightAware Transoceanic
02:55 43.9371 -50.4160 78° East 551 634 31,000  Level FlightAware Transoceanic
02:56 43.9687 -50.2081 78° East 551 634 31,000  Level FlightAware Transoceanic
02:57 44.0000 -50.0000 71° East 554 638 31,000  Level FlightAware Transoceanic
02:57 44.0000 -50.0000 71° East 549 632 31,000  Level New York Oceanic (ODAPS)
02:58 44.0504 -49.7991 71° East 554 638 31,000  Level FlightAware Transoceanic
02:59 44.1004 -49.5979 71° East 554 638 31,000  Level FlightAware Transoceanic
03:00 44.1501 -49.3963 71° East 554 638 31,000  Level FlightAware Transoceanic
03:01 44.1994 -49.1944 71° East 554 638 31,000  Level FlightAware Transoceanic
03:02 44.2483 -48.9922 71° East 554 638 31,000  Level FlightAware Transoceanic
03:03 44.2969 -48.7896 72° East 549 632 31,000  Level FlightAware Transoceanic
03:04 44.3451 -48.5867 72° East 549 632 31,000  Level FlightAware Transoceanic
03:05 44.3930 -48.3834 72° East 549 632 31,000  Level FlightAware Transoceanic
03:06 44.4406 -48.1799 72° East 549 632 31,000  Level FlightAware Transoceanic
03:07 44.4877 -47.9760 72° East 549 632 31,000  Level FlightAware Transoceanic
03:08 44.5345 -47.7717 72° East 549 632 31,000  Level FlightAware Transoceanic
03:09 44.5809 -47.5672 72° East 549 632 31,000  Level FlightAware Transoceanic
03:10 44.6270 -47.3623 73° East 549 632 31,000  Level FlightAware Transoceanic
03:11 44.6727 -47.1571 73° East 549 632 31,000  Level FlightAware Transoceanic
03:12 44.7180 -46.9515 73° East 549 632 31,000  Level FlightAware Transoceanic
03:13 44.7630 -46.7457 73° East 549 632 31,000  Level FlightAware Transoceanic
03:14 44.8075 -46.5395 73° East 549 632 31,000  Level FlightAware Transoceanic
03:15 44.8518 -46.3330 73° East 549 632 31,000  Level FlightAware Transoceanic
03:16 44.8956 -46.1262 73° East 549 632 31,000  Level FlightAware Transoceanic
03:17 44.9391 -45.9191 74° East 549 632 31,000  Level FlightAware Transoceanic
03:18 44.9822 -45.7117 74° East 549 632 31,000  Level FlightAware Transoceanic
03:19 45.0249 -45.5039 74° East 549 632 31,000  Level FlightAware Transoceanic
03:20 45.0672 -45.2959 74° East 549 632 31,000  Level FlightAware Transoceanic
03:21 45.1092 -45.0875 74° East 549 632 31,000  Level FlightAware Transoceanic
03:22 45.1508 -44.8788 74° East 549 632 31,000  Level FlightAware Transoceanic
03:23 45.1920 -44.6699 74° East 549 632 31,000  Level FlightAware Transoceanic
03:24 45.2328 -44.4606 75° East 549 632 31,000  Level FlightAware Transoceanic
03:25 45.2732 -44.2510 75° East 549 632 31,000  Level FlightAware Transoceanic
03:26 45.3133 -44.0411 75° East 549 632 31,000  Level FlightAware Transoceanic
03:27 45.3530 -43.8310 75° East 549 632 31,000  Level FlightAware Transoceanic
03:28 45.3922 -43.6205 75° East 549 632 31,000  Level FlightAware Transoceanic
03:29 45.4311 -43.4098 75° East 549 632 31,000  Level FlightAware Transoceanic
03:30 45.4696 -43.1987 75° East 549 632 31,000  Level FlightAware Transoceanic
03:31 45.5078 -42.9874 76° East 549 632 31,000  Level FlightAware Transoceanic
03:32 45.5455 -42.7758 76° East 549 632 31,000  Level FlightAware Transoceanic
03:33 45.5828 -42.5639 76° East 549 632 31,000  Level FlightAware Transoceanic
03:34 45.6198 -42.3517 76° East 549 632 31,000  Level FlightAware Transoceanic
03:35 45.6563 -42.1393 76° East 549 632 31,000  Level FlightAware Transoceanic
03:36 45.6925 -41.9266 76° East 549 632 31,000  Level FlightAware Transoceanic
03:37 45.7282 -41.7136 77° East 549 632 31,000  Level FlightAware Transoceanic
03:38 45.7636 -41.5003 77° East 549 632 31,000  Level FlightAware Transoceanic
03:39 45.7986 -41.2868 77° East 549 632 31,000  Level FlightAware Transoceanic
03:40 45.8331 -41.0729 77° East 549 632 31,000  Level FlightAware Transoceanic
03:41 45.8673 -40.8589 77° East 549 632 31,000  Level FlightAware Transoceanic
03:42 45.9011 -40.6446 77° East 549 632 31,000  Level FlightAware Transoceanic
03:43 45.9345 -40.4300 77° East 549 632 31,000  Level FlightAware Transoceanic
03:44 45.9674 -40.2151 78° East 549 632 31,000  Level FlightAware Transoceanic
03:45 46.0000 -40.0000 86° East 549 632 31,000  Level FlightAware Transoceanic
03:46 46.0095 -39.7783 87° East 549 632 31,000  Level FlightAware Transoceanic
03:47 46.0185 -39.5566 87° East 549 632 31,000  Level FlightAware Transoceanic
03:48 46.0271 -39.3348 87° East 549 632 31,000  Level FlightAware Transoceanic
03:49 46.0353 -39.1129 87° East 549 632 31,000  Level FlightAware Transoceanic
03:50 46.0431 -38.8909 87° East 549 632 31,000  Level FlightAware Transoceanic
03:51 46.0504 -38.6689 87° East 549 632 31,000  Level FlightAware Transoceanic
03:52 46.0573 -38.4468 88° East 549 632 31,000  Level FlightAware Transoceanic
03:53 46.0638 -38.2247 88° East 549 632 31,000  Level FlightAware Transoceanic
03:54 46.0698 -38.0025 88° East 549 632 31,000  Level FlightAware Transoceanic
03:55 46.0754 -37.7803 88° East 549 632 31,000  Level FlightAware Transoceanic
03:56 46.0806 -37.5580 88° East 549 632 31,000  Level FlightAware Transoceanic
03:57 46.0854 -37.3357 88° East 549 632 31,000  Level FlightAware Transoceanic
03:58 46.0897 -37.1134 88° East 549 632 31,000  Level FlightAware Transoceanic
03:59 46.0936 -36.8910 89° East 549 632 31,000  Level FlightAware Transoceanic
04:00 46.0970 -36.6686 89° East 549 632 31,000  Level FlightAware Transoceanic
04:01 46.1000 -36.4462 89° East 549 632 31,000  Level FlightAware Transoceanic
04:02 46.1026 -36.2237 89° East 549 632 31,000  Level FlightAware Transoceanic
04:03 46.1048 -36.0013 89° East 549 632 31,000  Level FlightAware Transoceanic
04:04 46.1065 -35.7788 89° East 549 632 31,000  Level FlightAware Transoceanic
04:05 46.1078 -35.5563 90° East 549 632 31,000  Level FlightAware Transoceanic
04:06 46.1087 -35.3338 90° East 549 632 31,000  Level FlightAware Transoceanic
04:07 46.1091 -35.1113 90° East 549 632 31,000  Level FlightAware Transoceanic
04:08 46.1091 -34.8887 90° East 549 632 31,000  Level FlightAware Transoceanic
04:09 46.1087 -34.6662 90° East 549 632 31,000  Level FlightAware Transoceanic
04:10 46.1078 -34.4437 90° East 549 632 31,000  Level FlightAware Transoceanic
04:11 46.1065 -34.2212 91° East 549 632 31,000  Level FlightAware Transoceanic
04:12 46.1048 -33.9987 91° East 549 632 31,000  Level FlightAware Transoceanic
04:13 46.1026 -33.7763 91° East 549 632 31,000  Level FlightAware Transoceanic
04:14 46.1000 -33.5538 91° East 549 632 31,000  Level FlightAware Transoceanic
04:15 46.0970 -33.3314 91° East 549 632 31,000  Level FlightAware Transoceanic
04:16 46.0936 -33.1090 91° East 549 632 31,000  Level FlightAware Transoceanic
04:17 46.0897 -32.8866 92° East 549 632 31,000  Level FlightAware Transoceanic
04:18 46.0854 -32.6643 92° East 549 632 31,000  Level FlightAware Transoceanic
04:19 46.0806 -32.4420 92° East 549 632 31,000  Level FlightAware Transoceanic
04:20 46.0754 -32.2197 92° East 549 632 31,000  Level FlightAware Transoceanic
04:21 46.0698 -31.9975 92° East 549 632 31,000  Level FlightAware Transoceanic
04:22 46.0638 -31.7753 92° East 549 632 31,000  Level FlightAware Transoceanic
04:23 46.0573 -31.5532 92° East 549 632 31,000  Level FlightAware Transoceanic
04:24 46.0504 -31.3311 93° East 549 632 31,000  Level FlightAware Transoceanic
04:25 46.0431 -31.1091 93° East 549 632 31,000  Level FlightAware Transoceanic
04:26 46.0353 -30.8871 93° East 549 632 31,000  Level FlightAware Transoceanic
04:27 46.0271 -30.6653 93° East 549 632 31,000  Level FlightAware Transoceanic
04:28 46.0185 -30.4434 93° East 549 632 31,000  Level FlightAware Transoceanic
04:29 46.0095 -30.2217 93° East 549 632 31,000  Level FlightAware Transoceanic
04:30 46.0006 -30.0139 93° East  Level FlightAware Approximate
04:31 45.9913 -29.8056 94° East  Level FlightAware Approximate
04:32 45.9892 -29.8192 95° East  Level FlightAware Approximate
04:33 45.9763 -29.6114 95° East  Level FlightAware Approximate
04:34 45.9631 -29.4036 95° East  Level FlightAware Approximate
04:35 45.9495 -29.1959 95° East  Level FlightAware Approximate
04:36 45.9355 -28.9884 95° East  Level FlightAware Approximate
04:37 45.9212 -28.7810 96° East  Level FlightAware Approximate
04:38 45.9072 -28.5735 95° East  Level FlightAware Approximate
04:39 45.8931 -28.3661 96° East  Level FlightAware Approximate
04:40 45.8786 -28.1589 96° East  Level FlightAware Approximate
04:41 45.8638 -27.9517 96° East  Level FlightAware Approximate
04:42 45.8485 -27.7447 96° East  Level FlightAware Approximate
04:43 45.8330 -27.5377 96° East  Level FlightAware Approximate
04:44 45.8170 -27.3309 96° East  Level FlightAware Approximate
04:45 45.8006 -27.1242 96° East  Level FlightAware Approximate
04:46 45.7839 -26.9176 97° East  Level FlightAware Approximate
04:47 45.7668 -26.7112 97° East  Level FlightAware Approximate
04:48 45.7494 -26.5049 97° East  Level FlightAware Approximate
04:49 45.7316 -26.2987 97° East  Level FlightAware Approximate
04:50 45.7134 -26.0926 97° East  Level FlightAware Approximate
04:51 45.6948 -25.8867 97° East  Level FlightAware Approximate
04:52 45.6759 -25.6809 97° East  Level FlightAware Approximate
04:53 45.6566 -25.4753 98° East  Level FlightAware Approximate
04:54 45.6369 -25.2698 98° East  Level FlightAware Approximate
04:55 45.6168 -25.0644 98° East  Level FlightAware Approximate
04:56 45.5964 -24.8592 98° East  Level FlightAware Approximate
04:57 45.5756 -24.6542 98° East  Level FlightAware Approximate
04:58 45.5545 -24.4492 98° East  Level FlightAware Approximate
04:59 45.5330 -24.2445 98° East  Level FlightAware Approximate
05:00 45.5111 -24.0399 99° East  Level FlightAware Approximate
05:01 45.4889 -23.8355 99° East  Level FlightAware Approximate
05:02 45.4663 -23.6312 99° East  Level FlightAware Approximate
05:03 45.4433 -23.4271 99° East  Level FlightAware Approximate
05:04 45.4200 -23.2232 99° East  Level FlightAware Approximate
05:05 45.3963 -23.0194 99° East  Level FlightAware Approximate
05:06 45.3722 -22.8158 99° East  Level FlightAware Approximate
05:07 45.3478 -22.6124 100° East  Level FlightAware Approximate
05:08 45.3230 -22.4091 100° East  Level FlightAware Approximate
05:09 45.2979 -22.2061 100° East  Level FlightAware Approximate
05:10 45.2724 -22.0032 100° East  Level FlightAware Approximate
05:11 45.2465 -21.8005 100° East  Level FlightAware Approximate
05:12 45.2203 -21.5980 100° East  Level FlightAware Approximate
05:13 45.1937 -21.3957 100° East  Level FlightAware Approximate
05:14 45.1668 -21.1936 101° East  Level FlightAware Approximate
05:15 45.1395 -20.9916 101° East  Level FlightAware Approximate
05:16 45.1119 -20.7899 101° East  Level FlightAware Approximate
05:17 45.0839 -20.5883 101° East  Level FlightAware Approximate
05:18 45.0555 -20.3870 101° East  Level FlightAware Approximate
05:19 45.0269 -20.1858 101° East  Level FlightAware Approximate
05:20 44.9982 -19.9855 100° East  Level FlightAware Approximate
05:21 44.9730 -19.7843 100° East  Level FlightAware Approximate
05:22 44.9475 -19.5833 100° East  Level FlightAware Approximate
05:23 44.9216 -19.3825 100° East  Level FlightAware Approximate
05:24 44.8954 -19.1818 100° East  Level FlightAware Approximate
05:25 44.8688 -18.9813 101° East  Level FlightAware Approximate
05:26 44.8418 -18.7811 101° East  Level FlightAware Approximate
05:27 44.8145 -18.5810 101° East  Level FlightAware Approximate
05:28 44.7869 -18.3811 101° East  Level FlightAware Approximate
05:29 44.7589 -18.1814 101° East  Level FlightAware Approximate
05:30 44.7306 -17.9819 101° East  Level FlightAware Approximate
05:31 44.7019 -17.7826 101° East  Level FlightAware Approximate
05:32 44.6729 -17.5835 102° East  Level FlightAware Approximate
05:33 44.6435 -17.3846 102° East  Level FlightAware Approximate
05:34 44.6138 -17.1859 102° East  Level FlightAware Approximate
05:35 44.5837 -16.9874 102° East  Level FlightAware Approximate
05:36 44.5533 -16.7891 102° East  Level FlightAware Approximate
05:37 44.5226 -16.5910 102° East  Level FlightAware Approximate
05:38 44.4915 -16.3931 102° East  Level FlightAware Approximate
05:39 44.4601 -16.1954 102° East  Level FlightAware Approximate
05:40 44.4283 -15.9980 103° East  Level FlightAware Approximate
05:41 44.3962 -15.8008 103° East  Level FlightAware Approximate
05:42 44.3637 -15.6038 103° East  Level FlightAware Approximate
05:43 44.3309 -15.4069 103° East  Level FlightAware Approximate
05:44 44.2978 -15.2104 103° East  Level FlightAware Approximate
05:45 44.2644 -15.0140 103° East  Level FlightAware Approximate
05:46 44.2306 -14.8179 103° East  Level FlightAware Approximate
05:47 44.1964 -14.6220 104° East  Level FlightAware Approximate
05:48 44.1620 -14.4263 104° East  Level FlightAware Approximate
05:49 44.1272 -14.2309 104° East  Level FlightAware Approximate
05:50 44.0920 -14.0357 104° East  Level FlightAware Approximate
05:51 44.0566 -13.8407 104° East  Level FlightAware Approximate
05:52 44.0208 -13.6459 104° East  Level FlightAware Approximate
05:53 43.9846 -13.4514 104° East  Level FlightAware Approximate
05:54 43.9481 -13.2568 105° East  Level FlightAware Approximate
05:55 43.9113 -13.0624 105° East  Level FlightAware Approximate
05:56 43.8741 -12.8683 105° East  Level FlightAware Approximate
05:57 43.8366 -12.6744 105° East  Level FlightAware Approximate
05:57 43.7830 -11.9940 105° East 503 579 36,000  Level FlightAware
05:58 43.7987 -12.4808 105° East  Level FlightAware Approximate
05:58 43.7480 -11.8370 107° East 503 579 36,000  Level FlightAware
05:59 43.7400 -11.8040 109° East 504 580 36,000  Level FlightAware
06:00 43.7150 -11.6870 106° East 505 581 36,000  Level FlightAware
06:01 43.6430 -11.3720 107° East 509 586 36,000  Level FlightAware
06:01 43.6110 -11.2330 108° East 510 587 36,000  Level FlightAware
06:02 43.5820 -11.1050 107° East 512 589 36,000  Level FlightAware
06:03 43.5540 -10.9810 107° East 513 590 36,000  Level FlightAware
06:03 43.5250 -10.8570 108° East 513 590 36,000  Level FlightAware
06:04 43.4960 -10.7350 108° East 514 592 36,000  Level FlightAware
06:05 43.4630 -10.5920 108° East 514 592 36,000  Level FlightAware
06:05 43.4340 -10.4710 108° East 515 593 36,000  Level FlightAware
06:06 43.4040 -10.3430 108° East 515 593 36,000  Level FlightAware
06:07 43.3740 -10.2190 108° East 514 592 36,000  Level FlightAware
06:07 43.3450 -10.0950 108° East 514 592 36,000  Level FlightAware
06:08 43.3140 -9.9710 109° East 514 592 36,000  Level FlightAware
06:09 43.2750 -9.8110 108° East 513 590 36,000  Level FlightAware
06:10 43.2440 -9.6840 108° East 512 589 36,000  Level FlightAware
06:10 43.2140 -9.5620 109° East 512 589 36,000  Level FlightAware
06:13 43.1071 -9.1438 109° East  Level FlightAware Approximate
06:13 43.0960 -9.0880 109° East 513 590 36,000  Level FlightAware
06:13 43.0740 -8.9990 109° East 513 590 36,000  Level FlightAware
06:14 43.0290 -8.8250 109° East 514 592 36,000  Level FlightAware
06:15 42.9980 -8.7020 109° East 513 590 36,000  Level FlightAware
06:16 42.9670 -8.5800 109° East 514 592 36,000  Level FlightAware
06:16 42.9340 -8.4410 108° East 515 593 36,000  Level FlightAware
06:17 42.9190 -8.3160 99° East 515 593 36,000  Level FlightAware
06:18 42.9110 -8.1740 94° East 515 593 36,000  Level FlightAware
06:18 42.9040 -8.0640 95° East 514 592 36,000  Level FlightAware
06:19 42.8960 -7.9320 95° East 514 592 36,000  Level FlightAware
06:21 42.8770 -7.6450 95° East 513 590 36,000  Level FlightAware
06:21 42.8690 -7.5200 95° East 511 588 36,000  Level FlightAware
06:22 42.8590 -7.3830 96° East 510 587 36,000  Level FlightAware
06:22 42.8510 -7.2710 96° East 509 586 36,000  Level FlightAware
06:23 42.8420 -7.1440 95° East 508 585 36,000  Level FlightAware
06:24 42.8330 -7.0260 96° East 508 585 36,000  Level FlightAware
06:24 42.8250 -6.9090 95° East 508 585 36,000  Level FlightAware
06:25 42.8140 -6.7690 96° East 507 583 36,000  Level FlightAware
06:26 42.8030 -6.6230 96° East 504 580 36,000  Level FlightAware
06:27 42.7930 -6.4970 96° East 505 581 36,000  Level FlightAware
06:27 42.7840 -6.3770 96° East 504 580 36,000  Level FlightAware
06:28 42.7720 -6.2290 96° East 503 579 36,000  Level FlightAware
06:29 42.7620 -6.0970 96° East 503 579 36,000  Level FlightAware
06:29 42.7500 -5.9560 97° East 501 577 36,000  Level FlightAware
06:30 42.7410 -5.8470 96° East 501 577 36,000  Level FlightAware
06:31 42.7320 -5.7410 97° East 500 575 36,000  Level FlightAware
06:31 42.7190 -5.5820 96° East 500 575 36,000  Level FlightAware
06:32 42.7080 -5.4570 97° East 500 575 36,000  Level FlightAware
06:33 42.6980 -5.3480 97° East 499 574 36,000  Level FlightAware
06:33 42.6860 -5.2080 97° East 498 573 36,000  Level FlightAware
06:34 42.6750 -5.0880 97° East 496 571 36,000  Level FlightAware
06:35 42.6620 -4.9460 97° East 494 568 36,000  Level FlightAware
06:35 42.6530 -4.8450 97° East 492 566 36,000  Level FlightAware
06:36 42.6410 -4.7200 97° East 489 563 36,000  Level FlightAware
06:37 42.6290 -4.5950 97° East 488 562 36,000  Level FlightAware
06:37 42.6190 -4.4890 97° East 489 563 36,000  Level FlightAware
06:38 42.6050 -4.3400 97° East 490 564 36,000  Level FlightAware
06:39 42.5930 -4.2170 98° East 491 565 36,000  Level FlightAware
06:39 42.5830 -4.1110 97° East 490 564 36,000  Level FlightAware
06:40 42.5700 -3.9860 98° East 492 566 36,000  Level FlightAware
06:41 42.5580 -3.8670 98° East 492 566 36,000  Level FlightAware
06:42 42.5370 -3.6620 98° East 493 567 36,000  Level FlightAware
06:43 42.5230 -3.5300 98° East 494 568 36,000  Level FlightAware
06:43 42.5100 -3.4050 98° East 494 568 36,000  Level FlightAware
06:44 42.4970 -3.2820 98° East 495 570 36,000  Level FlightAware
06:45 42.4840 -3.1630 98° East 495 570 36,000  Level FlightAware
06:45 42.4700 -3.0310 98° East 495 570 36,000  Level FlightAware
06:46 42.4570 -2.9200 99° East 496 571 36,000  Level FlightAware
06:47 42.4330 -2.7820 103° East 497 572 36,000  Level FlightAware
06:47 42.4080 -2.6610 106° East 498 573 36,000  Level FlightAware
06:48 42.3800 -2.5260 106° East 499 574 36,000  Level FlightAware
06:49 42.3570 -2.4150 106° East 499 574 36,000  Level FlightAware
06:49 42.3280 -2.2770 106° East 500 575 36,000  Level FlightAware
06:50 42.3010 -2.1480 106° East 500 575 36,000  Level FlightAware
06:51 42.2800 -2.0490 106° East 500 575 36,000  Level FlightAware
06:51 42.2480 -1.9000 106° East 499 574 36,000  Level FlightAware
06:52 42.2200 -1.7680 106° East 497 572 36,000  Level FlightAware
06:53 42.2030 -1.6910 107° East 497 572 36,000  Level FlightAware
06:53 42.1770 -1.5660 106° East 498 573 36,000  Level FlightAware
06:54 42.1470 -1.4350 107° East 497 572 36,000  Level FlightAware
06:55 42.1240 -1.3290 106° East 497 572 36,000  Level FlightAware
06:55 42.0980 -1.2100 106° East 496 571 36,000  Level FlightAware
06:56 42.0740 -1.1010 106° East 496 571 36,000  Level FlightAware
06:57 42.0510 -0.9970 107° East 497 572 36,000  Level FlightAware
06:57 42.0180 -0.8550 107° East 498 573 36,000  Level FlightAware
06:58 41.9930 -0.7420 107° East 500 575 36,000  Level FlightAware
06:59 41.9670 -0.6260 107° East 502 578 36,000  Level FlightAware
06:59 41.9350 -0.4860 107° East 502 578 36,000  Level FlightAware
07:00 41.9070 -0.3640 107° East 505 581 36,000  Level FlightAware
07:01 41.8760 -0.2290 107° East 506 582 36,000  Level FlightAware
07:02 41.8480 -0.1090 107° East 508 585 36,000  Level FlightAware
07:02 41.8170 0.0230 107° East 511 588 36,000  Level FlightAware
07:03 41.7890 0.1440 107° East 513 590 36,000  Level FlightAware
07:04 41.7580 0.2780 107° East 516 594 36,000  Level FlightAware
07:04 41.7290 0.4000 108° East 518 596 36,000  Level FlightAware
07:05 41.7020 0.5130 108° East 519 597 36,000  Level FlightAware
07:06 41.6730 0.6350 108° East 519 597 36,000  Level FlightAware
07:06 41.6380 0.7720 109° East 518 596 36,000  Level FlightAware
07:07 41.6120 0.8710 109° East 517 595 36,000  Level FlightAware
07:07 41.5830 0.9790 110° East 517 595 36,000  Level FlightAware
07:08 41.5550 1.0880 109° East 516 594 36,000  Level FlightAware
07:09 41.5200 1.2270 109° East 520 598 36,000  Level FlightAware
07:10 41.4920 1.3530 106° East 521 600 36,000  Level FlightAware
07:10 41.4610 1.4850 107° East 521 600 36,000  Level FlightAware
07:12 41.4000 1.7460 107° East 523 602 36,000  Level FlightAware
07:13 41.3690 1.8680 109° East 523 602 36,000  Level FlightAware
07:13 41.3300 2.0170 109° East 524 603 36,000  Level FlightAware
07:14 41.3010 2.1440 107° East 527 606 36,000  Level FlightAware
07:15 41.2770 2.2800 103° East 530 610 36,000  Level FlightAware
07:16 41.2490 2.4610 102° East 530 610 36,000  Level FlightAware
07:16 41.2320 2.5600 103° East 530 610 36,000  Level FlightAware
07:17 41.2100 2.6930 102° East 531 611 36,000  Level FlightAware
07:17 41.1860 2.8360 103° East 531 611 36,000  Level FlightAware
07:18 41.1640 2.9600 103° East 532 612 36,000  Level FlightAware
07:19 41.1400 3.1000 103° East 532 612 36,000  Level FlightAware
07:20 41.1180 3.2270 103° East 532 612 36,000  Level FlightAware
07:20 41.0980 3.3410 103° East 531 611 36,000  Level FlightAware
07:21 41.0760 3.4680 103° East 530 610 36,000  Level FlightAware
07:21 41.0550 3.5810 104° East 531 611 36,000  Level FlightAware
07:22 41.0200 3.7810 103° East 532 612 36,000  Level FlightAware
07:23 40.9960 3.9110 104° East 533 613 36,000  Level FlightAware
07:24 40.9710 4.0500 103° East 534 615 36,000  Level FlightAware
07:25 40.9430 4.2060 103° East 535 616 36,000  Level FlightAware
07:25 40.9230 4.3310 102° East 538 619 36,000  Level FlightAware
07:26 40.9100 4.4810 96° East 540 621 36,000  Level FlightAware
07:27 40.9010 4.6620 94° East 541 623 36,000  Level FlightAware
07:28 40.8960 4.7750 93° East 541 623 36,000  Level FlightAware
07:29 40.8910 4.9100 93° East 541 623 36,000  Level FlightAware
07:29 40.8850 5.0450 93° East 541 623 36,000  Level FlightAware
07:30 40.8650 5.2250 98° East 543 625 36,000  Level FlightAware
07:31 40.8550 5.3770 95° East 543 625 36,000  Level FlightAware
07:31 40.8470 5.5030 95° East 543 625 36,000  Level FlightAware
07:32 40.8400 5.6040 95° East 543 625 36,000  Level FlightAware
07:33 40.8330 5.7080 95° East 543 625 36,000  Level FlightAware
07:33 40.8180 5.9170 95° East 543 625 36,000  Level FlightAware
07:34 40.8060 6.0860 95° East 544 626 36,000  Level FlightAware
07:35 40.7930 6.2540 96° East 544 626 36,000  Level FlightAware
07:36 40.7810 6.4190 95° East 544 626 36,000  Level FlightAware
07:37 40.7700 6.5640 96° East 543 625 36,000  Level FlightAware
07:37 40.7600 6.6960 96° East 542 624 36,000  Level FlightAware
07:38 40.7480 6.8440 96° East 541 623 36,000  Level FlightAware
07:39 40.7360 6.9910 96° East 540 621 36,000  Level FlightAware
07:39 40.7270 7.1060 96° East 540 621 36,000  Level FlightAware
07:40 40.7130 7.2690 96° East 540 621 36,000  Level FlightAware
07:41 40.7030 7.4000 96° East 539 620 36,000  Level FlightAware
07:42 40.6910 7.5310 97° East 539 620 36,000  Level FlightAware
07:42 40.6790 7.6780 96° East 539 620 36,000  Level FlightAware
07:43 40.6690 7.7920 97° East 539 620 36,000  Level FlightAware
07:44 40.6570 7.9220 97° East 541 623 36,000  Level FlightAware
07:44 40.6350 8.0880 100° East 541 623 36,000  Level FlightAware
07:45 40.6110 8.2290 103° East 539 620 36,000  Level FlightAware
07:46 40.5850 8.3730 103° East 540 621 36,000  Level FlightAware
07:47 40.5620 8.5010 103° East 543 625 36,000  Level FlightAware
07:47 40.5380 8.6290 104° East 543 625 36,000  Level FlightAware
07:48 40.5170 8.7410 104° East 544 626 36,000  Level FlightAware
07:49 40.4900 8.8860 104° East 545 627 36,000  Level FlightAware
07:49 40.4680 8.9980 104° East 545 627 36,000  Level FlightAware
07:50 40.4400 9.1460 104° East 547 629 36,000  Level FlightAware
07:51 40.4160 9.2720 104° East 547 629 36,000  Level FlightAware
07:51 40.3910 9.4040 104° East 548 631 36,000  Level FlightAware
07:52 40.3690 9.5160 104° East 547 629 36,000  Level FlightAware
07:53 40.3440 9.6450 104° East 548 631 36,000  Level FlightAware
07:53 40.3160 9.7910 104° East 550 633 36,000 60 Level FlightAware
07:54 40.2860 9.9390 105° East 551 634 36,100 540 Climbing FlightAware
07:55 40.2610 10.0660 104° East 552 635 36,800 660 Climbing FlightAware
07:55 40.2350 10.1990 104° East 556 640 37,000 120 Climbing FlightAware
07:56 40.2080 10.3290 105° East 554 638 37,000  Level FlightAware
07:57 40.1820 10.4590 105° East 552 635 37,000  Level FlightAware
07:57 40.1560 10.5850 105° East 554 638 37,000  Level FlightAware
07:58 40.1280 10.7170 105° East 555 639 37,000  Level FlightAware
07:59 40.1040 10.8510 103° East 554 638 37,000  Level FlightAware
07:59 40.0850 10.9790 101° East 555 639 37,000  Level FlightAware
08:00 40.0700 11.0850 100° East 558 642 37,000  Level FlightAware
08:01 40.0450 11.2440 102° East 559 643 37,000  Level FlightAware
08:01 40.0250 11.3720 101° East 560 644 37,000  Level FlightAware
08:02 40.0000 11.5210 102° East 562 647 37,000  Level FlightAware
08:03 39.9800 11.6540 101° East 564 649 37,000  Level FlightAware
08:04 39.9500 11.8400 102° East 564 649 37,000  Level FlightAware
08:04 39.9350 11.9330 102° East 565 650 37,000  Level FlightAware
08:05 39.9080 12.1100 101° East 566 651 37,000  Level FlightAware
08:06 39.8810 12.2740 102° East 567 652 37,000  Level FlightAware
08:07 39.8550 12.4340 102° East 569 655 37,000  Level FlightAware
08:08 39.8200 12.6510 102° East 568 654 37,000  Level FlightAware
08:08 39.7980 12.7850 102° East 568 654 37,000  Level FlightAware
08:09 39.7740 12.9280 102° East 567 652 37,000  Level FlightAware
08:10 39.7540 13.0450 102° East 566 651 37,000  Level FlightAware
08:10 39.7320 13.1770 102° East 565 650 37,000  Level FlightAware
08:13 39.6401 13.5641 107° East  Level Estimated
08:13 39.6580 13.6060 107° East 564 649 37,000  Level FlightAware
08:13 39.6370 13.7280 103° East 564 649 37,000  Level FlightAware
08:14 39.6050 13.9100 103° East 564 649 37,000  Level FlightAware
08:15 39.5890 14.0570 98° East 563 648 37,000  Level FlightAware
08:16 39.5760 14.2040 96° East 564 649 37,000  Level FlightAware
08:16 39.5610 14.3690 97° East 564 649 37,000  Level FlightAware
08:17 39.5500 14.4890 97° East 565 650 37,000  Level FlightAware
08:18 39.5400 14.6100 96° East 564 649 37,000  Level FlightAware
08:18 39.5250 14.7850 96° East 563 648 37,000  Level FlightAware
08:19 39.5150 14.9010 96° East 561 646 37,000  Level FlightAware
08:19 39.5070 14.9950 96° East 560 644 37,000  Level FlightAware
08:21 39.4900 15.1970 96° East 556 640 37,000  Level FlightAware
08:21 39.4800 15.3320 95° East 553 636 37,000  Level FlightAware
08:22 39.4740 15.4410 94° East 552 635 37,000  Level FlightAware
08:22 39.4670 15.5890 93° East 549 632 37,000  Level FlightAware
08:23 39.4600 15.7320 94° East 546 628 37,000  Level FlightAware
08:24 39.4550 15.8370 93° East 546 628 37,000  Level FlightAware
08:24 39.4490 15.9830 93° East 545 627 37,000  Level FlightAware
08:25 39.4430 16.1390 93° East 544 626 37,000  Level FlightAware
08:26 39.4380 16.2430 94° East 542 624 37,000  Level FlightAware
08:27 39.4320 16.3850 93° East 543 625 37,000  Level FlightAware
08:27 39.4270 16.5150 93° East 543 625 37,000  Level FlightAware
08:28 39.4200 16.6870 93° East 545 627 37,000  Level FlightAware
08:29 39.4160 16.8140 92° East 545 627 37,000  Level FlightAware
08:29 39.4110 16.9510 93° East 545 627 37,000  Level FlightAware
08:30 39.4090 17.0320 92° East 545 627 37,000  Level FlightAware
08:31 39.3990 17.1810 95° East 546 628 37,000  Level FlightAware
08:31 39.3810 17.3100 100° East 545 627 37,000  Level FlightAware
08:32 39.3580 17.4160 106° East 543 625 37,000  Level FlightAware
08:33 39.3060 17.5560 116° Southeast 541 623 37,000  Level FlightAware
08:33 39.2620 17.6750 115° Southeast 541 623 37,000  Level FlightAware
08:34 39.2280 17.7680 115° Southeast 540 621 37,000  Level FlightAware
08:35 39.1790 17.8990 116° Southeast 540 621 37,000  Level FlightAware
08:35 39.1350 18.0180 115° Southeast 539 620 37,000  Level FlightAware
08:36 39.0950 18.1180 117° Southeast 540 621 37,000  Level FlightAware
08:37 39.0460 18.2410 117° Southeast 540 621 37,000  Level FlightAware
08:37 39.0000 18.3550 117° Southeast 541 623 37,000  Level FlightAware
08:38 38.9590 18.4580 117° Southeast 541 623 37,000  Level FlightAware
08:39 38.9070 18.5860 118° Southeast 541 623 37,000  Level FlightAware
08:39 38.8540 18.7180 117° Southeast 542 624 37,000  Level FlightAware
08:40 38.8180 18.8090 117° Southeast 538 619 37,000  Level FlightAware
08:41 38.7540 18.9680 117° Southeast 538 619 37,000  Level FlightAware
08:42 38.7010 19.0960 118° Southeast 537 618 37,000  Level FlightAware
08:42 38.6510 19.2250 116° Southeast 538 619 37,000  Level FlightAware
08:43 38.6070 19.3580 113° Southeast 538 619 37,000  Level FlightAware
08:44 38.5700 19.4760 112° Southeast 541 623 37,000  Level FlightAware
08:45 38.5270 19.6080 113° Southeast 539 620 37,000  Level FlightAware
08:45 38.4920 19.7110 113° Southeast 539 620 37,000  Level FlightAware
08:46 38.4480 19.8420 113° Southeast 538 619 37,000  Level FlightAware
08:47 38.3890 20.0160 113° Southeast 536 617 37,000  Level FlightAware
08:48 38.3190 20.2190 114° Southeast 537 618 37,000  Level FlightAware
08:49 38.2590 20.3960 113° Southeast 537 618 37,000  Level FlightAware
08:50 38.2200 20.5110 113° Southeast 537 618 37,000  Level FlightAware
08:50 38.1760 20.6390 114° Southeast 534 615 37,000  Level FlightAware
08:51 38.1500 20.7140 114° Southeast 536 617 37,000  Level FlightAware
08:52 38.1090 20.8330 114° Southeast 536 617 37,000  Level FlightAware
08:52 38.0640 20.9600 114° Southeast 535 616 37,000  Level FlightAware
08:53 38.0300 21.0580 114° Southeast 534 615 37,000  Level FlightAware
08:54 37.9890 21.1760 114° Southeast 534 615 37,000  Level FlightAware
08:54 37.9540 21.2760 114° Southeast 533 613 37,000  Level FlightAware
08:55 37.9080 21.4050 114° Southeast 536 617 37,000  Level FlightAware
08:56 37.8600 21.5330 115° Southeast 535 616 37,000  Level FlightAware
08:56 37.8130 21.6390 119° Southeast 535 616 37,000  Level FlightAware
08:57 37.7660 21.7490 118° Southeast 535 616 37,000  Level FlightAware
08:58 37.7120 21.8750 118° Southeast 535 616 37,000  Level FlightAware
08:59 37.6420 22.0230 121° Southeast 534 615 37,000  Level FlightAware
08:59 37.6020 22.1150 119° Southeast 534 615 37,000  Level FlightAware
09:00 37.5560 22.2190 119° Southeast 537 618 37,000  Level FlightAware
09:01 37.4920 22.3960 114° Southeast 540 621 37,000  Level FlightAware
09:02 37.4550 22.5060 113° Southeast 543 625 37,000  Level FlightAware
09:02 37.4070 22.6460 113° Southeast 545 627 37,000  Level FlightAware
09:03 37.3610 22.7830 113° Southeast 548 631 37,000  Level FlightAware
09:04 37.3220 22.8950 114° Southeast 550 633 37,000  Level FlightAware
09:04 37.2850 23.0030 113° Southeast 550 633 37,000  Level FlightAware
09:05 37.2460 23.1180 113° Southeast 553 636 37,000  Level FlightAware
09:06 37.2080 23.2270 114° Southeast 553 636 37,000  Level FlightAware
09:06 37.1640 23.3510 114° Southeast 555 639 37,000  Level FlightAware
09:07 37.1260 23.4590 114° Southeast 555 639 37,000  Level FlightAware
09:08 37.0820 23.5860 113° Southeast 555 639 37,000  Level FlightAware
09:09 37.0250 23.7510 113° Southeast 555 639 37,000  Level FlightAware
09:09 36.9910 23.8450 114° Southeast 555 639 37,000  Level FlightAware
09:10 36.9490 23.9650 114° Southeast 554 638 37,000  Level FlightAware
09:11 36.9040 24.0900 114° Southeast 546 628 37,000  Level FlightAware
09:12 36.7950 24.3940 119° Southeast 535 616 37,000  Level FlightAware
09:13 36.7612 24.4054 119° Southeast  Level FlightAware Approximate
09:13 36.7520 24.5120 114° Southeast 532 612 37,000  Level FlightAware
09:14 36.6990 24.6570 114° Southeast 529 609 37,000  Level FlightAware
09:15 36.6530 24.7840 114° Southeast 529 609 37,000  Level FlightAware
09:15 36.6120 24.8950 115° Southeast 528 608 37,000  Level FlightAware
09:16 36.5680 25.0160 114° Southeast 527 606 37,000  Level FlightAware
09:17 36.5350 25.1070 114° Southeast 526 605 37,000  Level FlightAware
09:17 36.4950 25.2140 115° Southeast 525 604 37,000  Level FlightAware
09:18 36.4510 25.3350 114° Southeast 525 604 37,000  Level FlightAware
09:19 36.4090 25.4470 115° Southeast 525 604 37,000  Level FlightAware
09:19 36.3620 25.5730 115° Southeast 524 603 37,000  Level FlightAware
09:20 36.3210 25.6810 115° Southeast 523 602 37,000  Level FlightAware
09:21 36.2800 25.7900 115° Southeast 522 601 37,000  Level FlightAware
09:21 36.2400 25.8960 115° Southeast 522 601 37,000  Level FlightAware
09:22 36.1980 26.0040 116° Southeast 523 602 37,000  Level FlightAware
09:23 36.1570 26.1130 115° Southeast 524 603 37,000  Level FlightAware
09:23 36.1120 26.2320 115° Southeast 524 603 37,000  Level FlightAware
09:24 36.0700 26.3400 116° Southeast 525 604 37,000  Level FlightAware
09:25 36.0220 26.4650 115° Southeast 526 605 37,000  Level FlightAware
09:26 35.9800 26.5740 115° Southeast 526 605 37,000  Level FlightAware
09:26 35.9420 26.6740 115° Southeast 526 605 37,000  Level FlightAware
09:27 35.9010 26.7790 116° Southeast 525 604 37,000  Level FlightAware
09:28 35.8590 26.8900 115° Southeast 525 604 37,000  Level FlightAware
09:28 35.8170 27.0010 115° Southeast 525 604 37,000  Level FlightAware
09:30 35.7160 27.2540 116° Southeast 522 601 37,000  Level FlightAware
09:31 35.6660 27.3780 116° Southeast 525 604 37,000  Level FlightAware
09:31 35.6240 27.4820 116° Southeast 523 602 37,000  Level FlightAware
09:33 35.5330 27.7150 116° Southeast 521 600 37,000  Level FlightAware
09:35 35.4490 27.9370 115° Southeast 521 600 37,000  Level FlightAware
09:35 35.3570 28.1460 118° Southeast 514 592 37,000  Level FlightAware
09:36 35.3110 28.2580 117° Southeast 515 593 37,000  Level FlightAware
09:37 35.2620 28.3810 116° Southeast 517 595 37,000  Level FlightAware
09:37 35.2320 28.4540 117° Southeast 517 595 37,000  Level FlightAware
09:38 35.1920 28.5510 117° Southeast 517 595 37,000  Level FlightAware
09:39 35.1400 28.6790 116° Southeast 517 595 37,000  Level FlightAware
09:40 35.0880 28.8040 117° Southeast 516 594 37,000  Level FlightAware
09:40 35.0480 28.8970 118° Southeast 516 594 37,000  Level FlightAware
09:41 34.9880 29.0430 117° Southeast 513 590 37,000  Level FlightAware
09:42 34.9420 29.1550 117° Southeast 512 589 37,000  Level FlightAware
09:43 34.8800 29.3050 117° Southeast 512 589 37,000  Level FlightAware
09:44 34.8360 29.4050 118° Southeast 512 589 37,000  Level FlightAware
09:44 34.7950 29.5030 117° Southeast 511 588 37,000  Level FlightAware
09:45 34.7330 29.6490 117° Southeast 508 585 37,000  Level FlightAware
09:46 34.6900 29.7510 117° Southeast 507 583 37,000  Level FlightAware
09:47 34.6180 29.9220 117° Southeast 507 583 37,000  Level FlightAware
09:48 34.5710 30.0280 118° Southeast 506 582 37,000  Level FlightAware
09:48 34.5270 30.1370 116° Southeast 506 582 37,000  Level FlightAware
09:49 34.4730 30.2310 125° Southeast 504 580 37,000  Level FlightAware
09:50 34.4140 30.3490 121° Southeast 498 573 37,000  Level FlightAware
09:50 34.3660 30.4490 120° Southeast 498 573 37,000  Level FlightAware
09:51 34.3170 30.5480 121° Southeast 499 574 37,000  Level FlightAware
09:52 34.2580 30.6720 120° Southeast 503 579 37,000  Level FlightAware
09:53 34.2120 30.7670 120° Southeast 503 579 37,000  Level FlightAware
09:53 34.1560 30.8800 121° Southeast 503 579 37,000  Level FlightAware
09:54 34.1140 30.9650 121° Southeast 503 579 37,000  Level FlightAware
09:55 34.0610 31.0730 121° Southeast 503 579 37,000  Level FlightAware
09:55 34.0180 31.1610 121° Southeast 504 580 37,000  Level FlightAware
09:56 33.9640 31.2710 121° Southeast 506 582 37,000  Level FlightAware
09:57 33.9100 31.3780 121° Southeast 507 583 37,000  Level FlightAware
09:58 33.8580 31.4820 121° Southeast 510 587 37,000  Level FlightAware
09:58 33.8070 31.5850 121° Southeast 507 583 37,000  Level FlightAware
09:59 33.7520 31.6940 121° Southeast 508 585 37,000  Level FlightAware
10:00 33.7030 31.7920 121° Southeast 508 585 37,000  Level FlightAware
10:00 33.6540 31.8890 121° Southeast 507 583 37,000  Level FlightAware
10:01 33.6150 31.9640 122° Southeast 507 583 37,000  Level FlightAware
10:01 33.5660 32.0610 121° Southeast 504 580 37,000  Level FlightAware
10:02 33.5180 32.1570 121° Southeast 503 579 37,000  Level FlightAware
10:03 33.4630 32.2650 121° Southeast 502 578 37,000  Level FlightAware
10:04 33.4000 32.3890 121° Southeast 506 582 37,000 -360 Level FlightAware
10:04 33.3510 32.4840 122° Southeast 504 580 36,500 -1,140 Descending FlightAware
10:05 33.2950 32.5910 122° Southeast 505 581 35,500 -1,140 Descending FlightAware
10:06 33.2210 32.7370 121° Southeast 494 568 34,600 -720 Descending FlightAware
10:07 33.1700 32.8370 121° Southeast 489 563 34,300 -1,680 Descending FlightAware
10:08 33.0990 32.9700 122° Southeast 32,400 -2,160 Descending FlightAware
10:09 33.0340 33.1010 121° Southeast 462 532 30,100 -2,280 Descending FlightAware
10:10 32.9880 33.1910 121° Southeast 450 518 28,600 -2,040 Descending FlightAware
10:12 32.8134 33.4402 121° Southeast  Level FlightAware Approximate
10:13 32.7395 33.5879 121° Southeast  Level FlightAware Approximate
10:13 32.7990 33.5570 121° Southeast 421 484 22,600  Level FlightAware
10:13 32.7670 33.6200 121° Southeast 414 476 21,500 -2,220 Descending FlightAware
10:14 32.7210 33.7080 122° Southeast 404 465 20,000 -2,040 Descending FlightAware
10:15 32.6770 33.7920 122° Southeast 394 453 18,500 -2,040 Descending FlightAware
10:15 32.6390 33.8670 121° Southeast 389 448 17,100 -2,640 Descending FlightAware
10:16 32.6010 33.9400 122° Southeast 401 461 15,100 -2,520 Descending FlightAware
10:17 32.5620 34.0120 123° Southeast 391 450 13,800 -1,980 Descending FlightAware
10:17 32.5170 34.0990 122° Southeast 380 437 12,200 -1,980 Descending FlightAware
10:18 32.4890 34.1510 123° Southeast 373 429 11,300 -1,620 Descending FlightAware
10:18 32.4530 34.1990 132° Southeast 356 410 10,600 -780 Descending FlightAware
10:19 32.4030 34.2570 136° Southeast 319 367 10,300 -840 Descending FlightAware
10:20 32.3550 34.3140 135° Southeast 307 353 9,300 -1,320 Descending FlightAware
10:20 32.3260 34.3480 135° Southeast 301 346 8,700 -720 Descending FlightAware
10:21 32.2980 34.3800 136° Southeast 299 344 8,600 -120 Descending FlightAware
10:22 32.2680 34.4160 135° Southeast 299 344 8,600  Level FlightAware
10:22 32.2580 34.4280 135° Southeast 299 344 8,600  Level FlightAware
10:22 32.2380 34.4520 135° Southeast 299 344 8,600 -900 Level FlightAware
10:25 32.0539 34.7736 115° Southeast  Level FlightAware Approximate
10:25 32.1060 34.6940 115° Southeast 5,200  Level FlightAware
10:26 32.0910 34.7200 124° Southeast 270 311 5,200  Level FlightAware
10:26 32.0750 34.7490 123° Southeast 244 281 5,200  Level FlightAware
10:27 32.0610 34.7740 123° Southeast 238 274 5,200 -240 Level FlightAware
10:27 32.0360 34.8020 136° Southeast 236 272 5,000 -480 Descending FlightAware
10:27 32.0180 34.8230 135° Southeast 238 274 4,800 -720 Descending FlightAware
10:28 31.9940 34.8500 136° Southeast 232 267 4,400 -1,260 Descending FlightAware
10:28 31.9750 34.8790 128° Southeast 233 268 3,600 -1,500 Descending FlightAware
10:29 31.9770 34.9160 86° East 204 235 2,900 -1,140 Descending FlightAware
10:29 31.9820 34.9360 74° East 188 216 2,600 -540 Descending FlightAware
10:30 31.9900 34.9680 74° East 187 215 2,400 -840 Descending FlightAware
10:32 32.0190 34.9000 297° West 148 170 400 -1,020 Descending FlightAware